W4SNA-3 Weather Reports


Display with metric or nautical units.
time (UTC)temp
F
wind
direction
speed
MPH
gust
MPH
rain 1hr
in
rain 24hr
in
rain mn
in
humidity
%
barometer
mb
20260902191217 89 0 0.0 2.0 0.00 0.00 0.00 55 1021.6
20260902190717 89 0 0.0 2.0 0.00 0.00 0.00 55 1021.6
20260902190217 88 0 0.0 2.0 0.00 0.00 0.00 59 1021.5
20260902185717 88 89 1.0 2.0 0.00 0.00 0.00 61 1021.6
20260902185223 87 0 0.0 2.0 0.00 0.00 0.00 57 1021.6
20260902184717 88 0 0.0 2.0 0.00 0.00 0.00 63 1021.5
20260902184217 87 0 0.0 2.0 0.00 0.00 0.00 63 1021.6
20260902183717 87 0 0.0 2.0 0.00 0.00 0.00 64 1021.5
20260902183217 87 0 0.0 2.0 0.00 0.00 0.00 66 1021.7
20260902182717 87 0 0.0 2.0 0.00 0.00 0.00 63 1021.7
20260902182223 88 0 0.0 6.0 0.00 0.00 0.00 60 1021.7
20260902181717 88 0 0.0 6.0 0.00 0.00 0.00 62 1021.6
20260902181217 89 0 0.0 1.0 0.00 0.00 0.00 63 1021.6
20260902180722 88 0 0.0 2.0 0.00 0.00 0.00 63 1021.6
20260902180218 88 0 0.0 2.0 0.00 0.00 0.00 58 1021.7
20260902175717 89 0 0.0 2.0 0.00 0.00 0.00 60 1021.7
20260902175217 89 0 0.0 2.0 0.00 0.00 0.00 58 1021.8
20260902174717 89 0 0.0 2.0 0.00 0.00 0.00 59 1021.7
20260902174217 90 0 0.0 3.0 0.00 0.00 0.00 61 1021.8
20260902173717 89 0 0.0 3.0 0.00 0.00 0.00 58 1021.8
20260902173218 90 0 0.0 1.0 0.00 0.00 0.00 61 1021.9
20260902172717 90 0 0.0 2.0 0.00 0.00 0.00 64 1021.9
20260902172220 90 0 0.0 4.0 0.00 0.00 0.00 63 1022.0
20260902171717 90 235 1.0 4.0 0.00 0.00 0.00 59 1021.9
20260902171217 89 0 0.0 2.0 0.00 0.00 0.00 63 1022.0
20260902170717 89 0 0.0 3.0 0.00 0.00 0.00 60 1022.1
20260902170217 90 0 0.0 3.0 0.00 0.00 0.00 60 1022.2
20260902165717 90 0 0.0 1.0 0.00 0.00 0.00 62 1022.3
20260902165217 90 0 0.0 2.0 0.00 0.00 0.00 59 1022.2
20260902164717 90 0 0.0 2.0 0.00 0.00 0.00 60 1022.2
20260902164219 89 128 1.0 2.0 0.00 0.00 0.00 58 1022.3
20260902163720 89 0 0.0 2.0 0.00 0.00 0.00 60 1022.4
20260902163224 90 0 0.0 2.0 0.00 0.00 0.00 60 1022.3
20260902162717 90 0 0.0 2.0 0.00 0.00 0.00 58 1022.3
20260902162219 90 0 0.0 2.0 0.00 0.00 0.00 60 1022.6
20260902161717 90 0 0.0 2.0 0.00 0.00 0.00 60 1022.6
20260902161217 89 0 0.0 3.0 0.00 0.00 0.00 60 1022.6
20260902160717 89 0 0.0 3.0 0.00 0.00 0.00 57 1022.8
20260902160220 89 0 0.0 2.0 0.00 0.00 0.00 64 1022.8
20260902155717 89 0 0.0 2.0 0.00 0.00 0.00 58 1022.8
20260902155219 88 0 0.0 2.0 0.00 0.00 0.00 63 1022.7
20260902154717 88 0 0.0 2.0 0.00 0.00 0.00 61 1022.7
20260902154217 88 0 0.0 1.0 0.00 0.00 0.00 58 1022.8
20260902153717 89 0 0.0 1.0 0.00 0.00 0.00 58 1022.9
20260902153222 89 0 0.0 1.0 0.00 0.00 0.00 56 1022.9
20260902152719 90 0 0.0 2.0 0.00 0.00 0.00 57 1023.0
20260902152217 91 0 0.0 2.0 0.00 0.00 0.00 58 1022.8
20260902151721 90 0 0.0 2.0 0.00 0.00 0.00 59 1023.0
20260902151217 90 0 0.0 5.0 0.00 0.00 0.00 56 1022.9
20260902150723 90 0 0.0 5.0 0.00 0.00 0.00 55 1023.0
20260902150220 90 0 0.0 2.0 0.00 0.00 0.00 57 1022.9
20260902145717 89 0 0.0 3.0 0.00 0.00 0.00 55 1022.8
20260902145217 89 0 0.0 3.0 0.00 0.00 0.00 61 1022.8
20260902144717 89 0 0.0 3.0 0.00 0.00 0.00 58 1022.8
20260902144217 89 0 0.0 3.0 0.00 0.00 0.00 60 1022.7
20260902143717 89 0 0.0 3.0 0.00 0.00 0.00 59 1022.7
20260902143217 88 0 0.0 3.0 0.00 0.00 0.00 63 1022.7
20260902142720 88 0 0.0 4.0 0.00 0.00 0.00 61 1022.7
20260902142217 88 56 1.0 4.0 0.00 0.00 0.00 63 1022.6
20260902141717 87 56 1.0 3.0 0.00 0.00 0.00 62 1022.6
20260902141217 87 0 0.0 2.0 0.00 0.00 0.00 64 1022.6
20260902140718 87 0 0.0 2.0 0.00 0.00 0.00 66 1022.5
20260902135721 86 0 0.0 4.0 0.00 0.00 0.00 67 1022.6
20260902135222 85 0 0.0 4.0 0.00 0.00 0.00 67 1022.6
20260902134253 84 56 1.0 2.0 0.00 0.00 0.00 68 1022.6
20260902133753 84 56 1.0 2.0 0.00 0.00 0.00 69 1022.7
20260902133250 83 0 0.0 2.0 0.00 0.00 0.00 70 1022.8
20260902132756 83 0 0.0 2.0 0.00 0.00 0.00 71 1022.7
20260902132250 82 0 0.0 2.0 0.00 0.00 0.00 72 1022.7
20260902131750 82 0 0.0 2.0 0.00 0.00 0.00 72 1022.8
20260902131250 81 0 0.0 2.0 0.00 0.00 0.00 73 1021.9
20260902130750 80 57 1.0 2.0 0.00 0.00 0.00 73 1021.8
20260902130306 80 0 0.0 2.0 0.00 0.00 0.00 74 1022.0
20260902125750 79 0 0.0 4.0 0.00 0.00 0.00 75 1021.9
20260902125250 78 57 1.0 4.0 0.00 0.00 0.00 76 1021.9
20260902124750 78 57 1.0 4.0 0.00 0.00 0.00 78 1022.0
20260902124250 77 59 1.0 4.0 0.00 0.00 0.00 78 1022.0
20260902123755 76 31 1.0 3.0 0.00 0.00 0.00 79 1021.9
20260902123250 76 31 1.0 3.0 0.00 0.00 0.00 80 1021.8
20260902122750 75 31 1.0 3.0 0.00 0.00 0.00 81 1021.8
20260902122250 74 31 1.0 4.0 0.00 0.00 0.00 82 1021.9
20260902121750 74 31 2.0 4.0 0.00 0.00 0.00 83 1021.8
20260902121250 73 33 1.0 4.0 0.00 0.00 0.00 84 1021.8
20260902120750 72 33 1.0 2.0 0.00 0.00 0.00 85 1021.8
20260902120250 72 33 1.0 3.0 0.00 0.00 0.00 86 1021.8
20260902115750 71 33 1.0 4.0 0.00 0.00 0.00 87 1021.8
20260902115252 71 0 0.0 4.0 0.00 0.00 0.00 87 1021.7
20260902114750 71 0 0.0 2.0 0.00 0.00 0.00 87 1021.8
20260902114250 71 0 0.0 3.0 0.00 0.00 0.00 87 1021.8
20260902113757 70 36 1.0 3.0 0.00 0.00 0.00 87 1021.7
20260902113250 70 0 0.0 3.0 0.00 0.00 0.00 87 1021.6
20260902112750 70 0 0.0 3.0 0.00 0.00 0.00 87 1021.6
20260902112253 70 0 0.0 3.0 0.00 0.00 0.00 87 1021.4
20260902111812 70 36 1.0 3.0 0.00 0.00 0.00 87 1021.5
20260902111250 70 36 1.0 3.0 0.00 0.00 0.00 87 1021.4
20260902110750 70 355 1.0 3.0 0.00 0.00 0.00 87 1021.4
20260902110306 70 355 1.0 4.0 0.00 0.00 0.00 88 1021.4
20260902105750 70 355 1.0 4.0 0.00 0.00 0.00 87 1021.4
20260902105250 70 350 1.0 3.0 0.00 0.00 0.00 87 1021.4
20260902104805 70 0 0.0 3.0 0.00 0.00 0.00 87 1021.4
20260902104254 70 350 1.0 3.0 0.00 0.00 0.00 87 1021.5
20260902103756 70 355 1.0 3.0 0.00 0.00 0.00 87 1021.4
20260902103250 70 350 1.0 3.0 0.00 0.00 0.00 87 1021.3
20260902102750 70 350 1.0 3.0 0.00 0.00 0.00 87 1021.4
20260902102250 70 350 1.0 3.0 0.00 0.00 0.00 87 1021.3
20260902101750 70 350 1.0 3.0 0.00 0.00 0.00 87 1021.4
20260902101252 70 350 1.0 3.0 0.00 0.00 0.00 87 1021.3
20260902100750 70 348 2.0 3.0 0.00 0.00 0.00 87 1021.1
20260902100016 70 340 1.0 4.0 0.00 0.00 0.00 87 1021.0
20260902095522 70 340 2.0 4.0 0.00 0.00 0.00 87 1021.0
20260902095013 70 340 2.0 4.0 0.00 0.00 0.00 87 1021.0
20260902094513 70 341 1.0 4.0 0.00 0.00 0.00 87 1020.9
20260902094013 70 341 1.0 4.0 0.00 0.00 0.00 87 1021.0
20260902093409 70 345 1.0 4.0 0.00 0.00 0.00 87 1020.9
20260902092922 70 347 2.0 4.0 0.00 0.00 0.00 87 1020.8
20260902092407 70 346 1.0 4.0 0.00 0.00 0.00 87 1020.8
20260902091907 70 346 2.0 4.0 0.00 0.00 0.00 87 1020.9
20260902091407 70 342 2.0 4.0 0.00 0.00 0.00 87 1020.9
20260902090911 70 342 2.0 4.0 0.00 0.00 0.00 87 1020.9
20260902090413 70 345 2.0 4.0 0.00 0.00 0.00 87 1021.0
20260902085907 70 353 2.0 4.0 0.00 0.00 0.00 87 1021.0
20260902085407 70 357 2.0 4.0 0.00 0.00 0.00 87 1021.0
20260902084910 70 331 2.0 4.0 0.00 0.00 0.00 87 1021.0
20260902084408 70 330 2.0 4.0 0.00 0.00 0.00 87 1020.7
20260902083910 70 315 2.0 4.0 0.00 0.00 0.00 87 1020.8
20260902083410 70 329 2.0 4.0 0.00 0.00 0.00 88 1020.8
20260902082909 70 332 2.0 4.0 0.00 0.00 0.00 87 1020.8
20260902082408 70 333 2.0 4.0 0.00 0.00 0.00 88 1020.7
20260902081909 70 311 2.0 4.0 0.00 0.00 0.00 88 1020.7
20260902081408 70 336 2.0 4.0 0.00 0.00 0.00 88 1020.7
20260902080907 70 353 2.0 4.0 0.00 0.00 0.00 88 1020.7
20260902080407 70 330 2.0 4.0 0.00 0.00 0.00 88 1020.7
20260902075907 70 331 2.0 4.0 0.00 0.00 0.00 88 1020.6
20260902075045 71 357 2.0 4.0 0.00 0.00 0.00 87 1020.7
20260902074544 71 333 2.0 5.0 0.00 0.00 0.00 87 1020.8
20260902074115 71 329 1.0 5.0 0.00 0.00 0.00 87 1020.8
20260902073207 71 328 1.0 4.0 0.00 0.00 0.00 87 1020.8
20260902072708 71 327 2.0 4.0 0.00 0.00 0.00 87 1020.7
20260902072206 71 326 1.0 5.0 0.00 0.00 0.00 87 1020.8
20260902071707 71 324 3.0 5.0 0.00 0.00 0.00 87 1020.9
20260902071206 71 320 1.0 5.0 0.00 0.00 0.00 87 1021.0
20260902070723 71 333 2.0 5.0 0.00 0.00 0.00 87 1020.9
20260902070435 71 342 2.0 5.0 0.00 0.00 0.00 87 1020.8
20260902070207 71 342 2.0 5.0 0.00 0.00 0.00 87 1020.8
20260902065706 71 322 2.0 5.0 0.00 0.00 0.00 87 1020.6
20260902065206 71 323 2.0 5.0 0.00 0.00 0.00 87 1020.6
20260902064706 71 329 2.0 5.0 0.00 0.00 0.00 87 1020.7
20260902064206 71 320 2.0 5.0 0.00 0.00 0.00 87 1020.7
20260902063706 71 327 2.0 5.0 0.00 0.00 0.00 87 1020.7
20260902063208 71 319 2.0 5.0 0.00 0.00 0.00 86 1020.6
20260902062706 71 323 2.0 5.0 0.00 0.00 0.00 86 1020.8
20260902062206 71 322 2.0 5.0 0.00 0.00 0.00 86 1020.7
20260902061707 71 320 2.0 4.0 0.00 0.00 0.00 86 1020.7
20260902061206 71 335 2.0 4.0 0.00 0.00 0.00 86 1020.7
20260902060706 71 333 2.0 4.0 0.00 0.00 0.00 86 1020.7
20260902060208 71 317 2.0 4.0 0.00 0.00 0.00 86 1020.5
20260902055716 71 318 2.0 4.0 0.00 0.00 0.00 86 1020.5
20260902055206 71 320 2.0 4.0 0.00 0.00 0.00 86 1020.4
20260902054706 71 317 2.0 4.0 0.00 0.00 0.00 86 1020.4
20260902054220 71 319 2.0 5.0 0.00 0.00 0.00 86 1020.4
20260902053718 71 316 2.0 5.0 0.00 0.00 0.00 85 1020.4
20260902053207 71 322 2.0 4.0 0.00 0.00 0.00 85 1020.4
20260902052706 71 324 2.0 4.0 0.00 0.00 0.00 85 1020.5
20260902052206 71 314 2.0 4.0 0.00 0.00 0.00 85 1020.4
20260902051706 71 313 2.0 5.0 0.00 0.00 0.00 84 1020.4
20260902051206 71 310 2.0 5.0 0.00 0.00 0.00 84 1020.4
20260902050721 71 326 2.0 4.0 0.00 0.00 0.00 83 1020.4
20260902050209 71 346 2.0 4.0 0.00 0.00 0.00 83 1020.4
20260902045323 71 29 2.0 4.0 0.00 0.00 0.00 83 1020.4
20260902044328 71 318 2.0 4.0 0.00 0.00 0.00 82 1020.4
20260902043828 71 324 2.0 5.0 0.00 0.00 0.00 83 1020.3
20260902043330 71 324 2.0 5.0 0.00 0.00 0.00 82 1020.4
20260902042829 71 332 2.0 4.0 0.00 0.00 0.00 82 1020.3
20260902042328 72 342 2.0 4.0 0.00 0.00 0.00 83 1020.2
20260902041828 72 319 2.0 5.0 0.00 0.00 0.00 83 1020.3
20260902041328 72 331 2.0 5.0 0.00 0.00 0.00 83 1020.3
20260902040828 72 326 2.0 5.0 0.00 0.00 0.00 82 1020.5
20260902040328 72 328 2.0 5.0 0.00 0.00 0.00 82 1020.5
20260902035829 72 343 2.0 8.0 0.00 0.00 0.00 82 1020.5
20260902035328 72 338 2.0 8.0 0.00 0.00 0.00 82 1020.5
20260902034830 72 322 2.0 4.0 0.00 0.00 0.00 82 1020.6
20260902034328 72 344 2.0 6.0 0.00 0.00 0.00 83 1020.6
20260902033828 72 337 2.0 6.0 0.00 0.00 0.00 83 1020.7
20260902033328 72 324 2.0 4.0 0.00 0.00 0.00 83 1020.6
20260902032828 71 340 2.0 4.0 0.00 0.00 0.00 83 1020.6
20260902032328 71 14 1.0 4.0 0.00 0.00 0.00 83 1020.6
20260902031850 72 23 1.0 3.0 0.00 0.00 0.00 83 1020.6
20260902031328 72 32 2.0 3.0 0.00 0.00 0.00 83 1020.6
20260902030849 72 38 1.0 3.0 0.00 0.00 0.00 83 1020.7
20260902030328 72 39 1.0 3.0 0.00 0.00 0.00 82 1020.7
20260902025841 72 39 1.0 3.0 0.00 0.00 0.00 82 1020.9
20260902025329 72 39 1.0 3.0 0.00 0.00 0.00 81 1020.9
20260902024828 72 39 1.0 3.0 0.00 0.00 0.00 81 1020.8
20260902024329 72 40 1.0 3.0 0.00 0.00 0.00 81 1020.9
20260902023828 72 41 1.0 3.0 0.00 0.00 0.00 81 1020.9
20260902023342 72 41 1.0 3.0 0.00 0.00 0.00 81 1020.9
20260902022828 72 43 1.0 3.0 0.00 0.00 0.00 81 1020.9
20260902022328 72 43 1.0 3.0 0.00 0.00 0.00 81 1021.0
20260902021831 72 44 1.0 3.0 0.00 0.00 0.00 81 1020.9
20260902021342 72 46 1.0 3.0 0.00 0.00 0.00 81 1020.8
20260902020830 72 46 1.0 3.0 0.00 0.00 0.00 81 1020.8
20260902020328 72 46 1.0 3.0 0.00 0.00 0.00 81 1020.8
20260902015840 73 46 1.0 3.0 0.00 0.00 0.00 81 1020.8
20260902015339 73 46 1.0 3.0 0.00 0.00 0.00 81 1020.7
20260902014828 73 0 0.0 2.0 0.00 0.00 0.00 80 1020.7
20260902014328 73 46 1.0 2.0 0.00 0.00 0.00 80 1020.6
20260902013828 73 46 1.0 3.0 0.00 0.00 0.00 81 1020.6
20260902013342 73 46 1.0 3.0 0.00 0.00 0.00 80 1020.6
20260902012828 73 46 1.0 3.0 0.00 0.00 0.00 80 1020.6
20260902012328 73 46 1.0 3.0 0.00 0.00 0.00 79 1020.5
20260902011829 73 46 1.0 3.0 0.00 0.00 0.00 79 1020.4
20260902011334 73 47 1.0 3.0 0.00 0.00 0.00 79 1020.3
20260902010828 73 48 1.0 3.0 0.00 0.00 0.00 79 1020.3
20260902010330 73 43 1.0 3.0 0.00 0.00 0.00 79 1020.2
20260902005828 73 44 1.0 3.0 0.00 0.00 0.00 79 1020.0
20260902005328 73 44 1.0 3.0 0.00 0.00 0.00 79 1020.0
20260902004828 73 46 1.0 3.0 0.00 0.00 0.00 80 1019.9
20260902004136 73 48 2.0 3.0 0.00 0.00 0.00 80 1019.8
20260902003636 73 50 1.0 4.0 0.00 0.00 0.00 80 1019.8
20260902003136 73 51 1.0 4.0 0.00 0.00 0.00 80 1019.8
20260902002636 73 54 1.0 3.0 0.00 0.00 0.00 80 1020.0
20260902002150 73 63 1.0 3.0 0.00 0.00 0.00 80 1019.9
20260902001636 73 63 1.0 3.0 0.00 0.00 0.00 80 1019.9
20260902001136 74 66 1.0 3.0 0.00 0.00 0.00 80 1019.9
20260902000636 74 67 1.0 3.0 0.00 0.00 0.00 80 1019.9
20260902000136 74 68 1.0 3.0 0.00 0.00 0.00 80 1020.0
20260901235636 74 83 1.0 3.0 0.00 0.01 0.00 80 1020.0
20260901235136 74 83 1.0 2.0 0.00 0.05 0.00 80 1020.0
20260901234426 74 90 1.0 3.0 0.00 0.23 0.00 79 1020.1
20260901233925 75 91 1.0 3.0 0.00 0.25 0.00 79 1020.0
20260901233427 75 91 1.0 3.0 0.00 0.25 0.00 79 1020.1
20260901232928 75 91 1.0 3.0 0.00 0.25 0.00 79 1020.1
20260901232432 75 91 1.0 3.0 0.00 0.25 0.00 79 1020.1
20260901231925 76 91 1.0 3.0 0.00 0.25 0.00 78 1020.1
20260901231426 76 91 1.0 3.0 0.00 0.25 0.00 78 1020.2
20260901230925 76 92 1.0 2.0 0.00 0.25 0.00 77 1020.2
20260901230425 76 92 1.0 2.0 0.00 0.25 0.00 78 1020.3
20260901225925 76 0 0.0 2.0 0.00 0.25 0.00 77 1020.3
20260901225425 77 0 0.0 2.0 0.00 0.25 0.00 78 1020.4
20260901224925 77 0 0.0 2.0 0.00 0.25 0.00 76 1020.4
20260901224426 77 0 0.0 2.0 0.00 0.25 0.00 76 1020.4
20260901223925 77 0 0.0 2.0 0.00 0.25 0.00 76 1020.3
20260901223425 77 0 0.0 1.0 0.00 0.25 0.00 76 1020.4
20260901222929 78 0 0.0 2.0 0.00 0.25 0.00 76 1020.4
20260901222425 78 0 0.0 2.0 0.00 0.25 0.00 75 1020.4
20260901221925 78 0 0.0 3.0 0.00 0.25 0.00 75 1020.3
20260901221432 78 0 0.0 3.0 0.00 0.25 0.00 73 1020.3
20260901220925 79 0 0.0 2.0 0.00 0.25 0.00 73 1020.3
20260901220435 79 0 0.0 2.0 0.00 0.25 0.00 71 1020.3
20260901215925 79 0 0.0 2.0 0.00 0.25 0.00 72 1020.4
20260901215432 79 0 0.0 2.0 0.00 0.25 0.00 71 1020.4
20260901214925 80 0 0.0 3.0 0.00 0.25 0.00 70 1020.4
20260901214433 80 0 0.0 3.0 0.00 0.25 0.00 69 1020.3
20260901213925 80 83 1.0 3.0 0.00 0.25 0.00 68 1020.3
20260901213425 80 84 1.0 3.0 0.00 0.25 0.00 70 1020.4
20260901212925 81 0 0.0 3.0 0.00 0.25 0.00 69 1020.2
20260901212426 81 0 0.0 2.0 0.00 0.25 0.00 68 1020.3
20260901211927 81 0 0.0 3.0 0.00 0.25 0.00 67 1020.2
20260901211426 82 0 0.0 3.0 0.00 0.25 0.00 66 1020.2
20260901210927 82 0 0.0 5.0 0.00 0.25 0.00 66 1020.2
20260901210426 83 0 0.0 5.0 0.00 0.25 0.00 65 1021.1
20260901205925 83 0 0.0 2.0 0.00 0.25 0.00 64 1021.1
20260901205433 83 0 0.0 2.0 0.00 0.25 0.00 63 1020.3
20260901204947 84 95 1.0 3.0 0.00 0.25 0.00 64 1020.3
20260901204426 84 95 1.0 3.0 0.00 0.25 0.00 64 1020.4
20260901203933 84 0 0.0 2.0 0.00 0.25 0.00 62 1021.3
20260901203435 84 98 1.0 3.0 0.00 0.25 0.00 63 1021.4
20260901202925 85 99 1.0 3.0 0.00 0.25 0.00 62 1021.4
20260901202426 85 0 0.0 2.0 0.00 0.25 0.00 62 1021.5
20260901201927 85 59 1.0 5.0 0.00 0.25 0.00 62 1021.5
20260901201426 85 59 1.0 6.0 0.00 0.25 0.00 62 1021.4
20260901200925 85 22 1.0 6.0 0.00 0.25 0.00 61 1021.3
20260901200426 86 0 0.0 3.0 0.00 0.25 0.00 62 1021.3
20260901195925 86 80 1.0 5.0 0.00 0.25 0.00 63 1021.2
20260901195425 86 0 0.0 5.0 0.00 0.25 0.00 63 1021.3
20260901194825 86 0 0.0 3.0 0.00 0.25 0.00 61 1021.3
20260901194325 86 0 0.0 4.0 0.00 0.25 0.00 64 1021.3
20260901193825 86 89 1.0 4.0 0.00 0.25 0.00 62 1021.4
20260901193325 86 351 1.0 3.0 0.00 0.25 0.00 61 1021.4
20260901192825 86 0 0.0 4.0 0.00 0.25 0.00 61 1021.4
20260901192325 86 0 0.0 4.0 0.00 0.25 0.00 61 1021.3
20260901191825 86 271 1.0 4.0 0.00 0.25 0.00 62 1021.3